This demonstration page uses our WeatherBlox Daily Observations layout. Learn more.

Left ArrowRight Arrow

41.86663, -103.66717

Hourly Observations for August 21, 2018

Temp ( °F °C ) Dew Point ( °F °C ) Humidity (%) Winds ( mph kmh ) Pressure ( in mb ) Visibility ( mi km ) Precip ( " mm )
12:53 am 00:53 Clear 54 12.2 49 9.4 83 83 E 3 6 30.14 1021 10 16 0.00 0.00
1:53 am 01:53 Mostly Cloudy 54 12.2 51 10.6 90 90 E 3 6 30.18 1022 10 16 0.00 0.00
2:53 am 02:53 Cloudy with Light Rain 54 12.2 51 10.6 90 90 E 12 19 30.15 1021 10 16 0.00 0.03
3:53 am 03:53 Mostly Cloudy 53 11.7 52 11.1 96 96 E 7 11 30.16 1021 10 16 0.01 0.25
4:53 am 04:53 Clear 52 11.1 52 11.1 100 100 E 9 15 30.14 1021 10 16 0.00 0.00
5:53 am 05:53 Partly Cloudy 53 11.7 52 11.1 96 96 Calm 30.19 1022 10 16 0.00 0.00
6:53 am 06:53 Cloudy 53 11.7 52 11.1 96 96 ENE 8 13 30.22 1023 10 16 0.00 0.03
7:53 am 07:53 Cloudy with Light Rain 53 11.7 52 11.1 96 96 ENE 9 15 30.25 1024 10 16 0.00 0.03
8:53 am 08:53 Cloudy 54 12.2 53 11.7 97 97 SE 10 17 30.23 1024 10 16 0.00 0.03
9:53 am 09:53 Mostly Cloudy with Light Rain 55 12.8 55 12.8 100 100 SSE 18 30 30.17 1022 9 14 0.02 0.51
10:53 am 10:53 Partly Cloudy 61 16.1 56 13.3 84 84 E 13 20 30.22 1023 10 16 0.00 0.03
11:53 am 11:53 Partly Cloudy 65 18.3 56 13.3 73 73 E 9 15 30.21 1023 10 16 0.00 0.00
12:00 pm 12:00 Mostly Cloudy 64 17.8 56 13.3 75 75 E 14 22 30.12 1020 10 16 0.00 0.00
12:30 pm 12:30 Partly Cloudy 64 18 55 13 73 73 E 13 20 30.12 1020 10 16 0.00 0.00
12:53 pm 12:53 Partly Cloudy 66 18.9 56 13.3 70 70 E 14 22 30.20 1023 10 16 0.00 0.00
1:53 pm 13:53 Partly Cloudy 68 20 57 13.9 68 68 E 15 24 30.18 1022 10 16 0.00 0.00
2:53 pm 14:53 Cloudy 69 20.6 56 13.3 63 63 ESE 15 24 30.19 1022 10 16 0.00 0.00
3:53 pm 15:53 Cloudy 68 20 56 13.3 65 65 ESE 14 22 30.19 1022 10 16 0.00 0.00
4:53 pm 16:53 Mostly Cloudy 67 19.4 57 13.9 71 71 E 17 28 30.17 1022 9 14 0.00 0.00
5:53 pm 17:53 Sunny 66 18.9 56 13.3 70 70 ESE 16 26 30.18 1022 9 14 0.00 0.00
6:53 pm 18:53 Sunny 64 17.8 55 12.8 73 73 ESE 16 26 30.21 1023 9 14 0.00 0.00
7:53 pm 19:53 Clear 62 16.7 55 12.8 78 78 ESE 14 22 30.21 1023 10 16 0.00 0.00
8:53 pm 20:53 Clear 60 15.6 55 12.8 84 84 ESE 12 19 30.23 1024 9 14 0.00 0.00
9:53 pm 21:53 Clear 58 14.4 55 12.8 90 90 ESE 7 11 30.24 1024 7 11 0.00 0.00
10:53 pm 22:53 Clear with Mist and Fog 56 13.3 56 13.3 100 100 ESE 8 13 30.23 1024 5 8 0.00 0.00
11:15 pm 23:15 Mostly Cloudy with Mist and Fog 56 13.3 56 13.3 100 100 ESE 8 13 30.21 1023 5 8 0.00 0.00
11:53 pm 23:53 Cloudy with Mist and Fog 57 13.9 56 13.3 96 96 ESE 8 13 30.23 1024 6 10 0.00 0.00

Powered by AerisWeather